Volver al catálogo

FREGAT DEB

ActivoUNKNOWN
NORAD 45999·DEBRIS·🇷🇺 Russia

Lanzado Jul 18, 2011 desde Baikonur Cosmodrome

Loading…

Próximos Pases (próximas 24 horas)

TLE

ActualizadoSource: Space-Track

Época: Sep 11, 2026, 03:22 UTC

1 45999U 11037HA  26254.14084519 -.00000174  00000-0 -32542-3 0  9992
2 45999  51.4651 161.4611 2136026 209.2710 136.9714 10.06363852224813

Sigue FREGAT DEB en tiempo real con AllMySat

Download on the App Store